| time (UTC) | temp F | wind direction | speed MPH | gust MPH | rain 1hr in | rain 24hr in | rain mn in | humidity % | barometer mb |
| 20260906081330 | 58 | 304 | 2.0 | 5.0 | 0.00 | 0.00 | 0.00 | 98 | 1017.6 |
| 20260906081207 | 58 | 317 | 2.0 | 5.0 | 0.00 | 0.00 | 0.00 | 98 | 1017.6 |
| 20260906080329 | 58 | 276 | 2.0 | 5.0 | 0.00 | 0.00 | 0.00 | 98 | 1017.6 |
| 20260906080207 | 58 | 253 | 2.0 | 5.0 | 0.00 | 0.00 | 0.00 | 97 | 1017.6 |
| 20260906075330 | 58 | 304 | 2.0 | 4.0 | 0.00 | 0.00 | 0.00 | 98 | 1017.7 |
| 20260906075208 | 58 | 283 | 2.0 | 4.0 | 0.00 | 0.00 | 0.00 | 97 | 1017.6 |
| 20260906074329 | 58 | 309 | 2.0 | 5.0 | 0.00 | 0.00 | 0.00 | 97 | 1017.6 |
| 20260906074203 | 58 | 299 | 2.0 | 5.0 | 0.00 | 0.00 | 0.00 | 97 | 1017.5 |
| 20260906073637 | 58 | 301 | 2.0 | 5.0 | 0.00 | 0.00 | 0.00 | 97 | 1017.4 |
| 20260906073431 | 58 | 315 | 2.0 | 5.0 | 0.00 | 0.00 | 0.00 | 97 | 1017.4 |
| 20260906072331 | 58 | 286 | 2.0 | 4.0 | 0.00 | 0.00 | 0.00 | 97 | 1017.4 |
| 20260906072203 | 58 | 257 | 2.0 | 4.0 | 0.00 | 0.00 | 0.00 | 97 | 1017.4 |
| 20260906071330 | 58 | 274 | 2.0 | 6.0 | 0.00 | 0.00 | 0.00 | 97 | 1017.3 |
| 20260906071202 | 58 | 276 | 2.0 | 6.0 | 0.00 | 0.00 | 0.00 | 97 | 1017.3 |
| 20260906070332 | 58 | 317 | 2.0 | 6.0 | 0.00 | 0.00 | 0.00 | 97 | 1017.3 |
| 20260906070202 | 58 | 301 | 2.0 | 6.0 | 0.00 | 0.00 | 0.00 | 97 | 1017.3 |
| 20260906065331 | 58 | 247 | 2.0 | 5.0 | 0.00 | 0.00 | 0.00 | 97 | 1017.3 |
| 20260906065202 | 58 | 318 | 2.0 | 5.0 | 0.00 | 0.00 | 0.00 | 97 | 1017.3 |
| 20260906064332 | 58 | 276 | 2.0 | 5.0 | 0.00 | 0.00 | 0.00 | 97 | 1017.2 |
| 20260906064202 | 58 | 323 | 2.0 | 5.0 | 0.00 | 0.00 | 0.00 | 97 | 1017.2 |
| 20260906063330 | 58 | 315 | 2.0 | 5.0 | 0.00 | 0.00 | 0.00 | 97 | 1017.3 |
| 20260906063202 | 58 | 307 | 2.0 | 5.0 | 0.00 | 0.00 | 0.00 | 97 | 1017.3 |
| 20260906062330 | 58 | 261 | 1.0 | 4.0 | 0.00 | 0.00 | 0.00 | 96 | 1017.2 |
| 20260906062201 | 58 | 273 | 1.0 | 4.0 | 0.00 | 0.00 | 0.00 | 96 | 1017.2 |
| 20260906061329 | 58 | 346 | 2.0 | 5.0 | 0.00 | 0.00 | 0.00 | 96 | 1017.2 |
| 20260906061203 | 58 | 301 | 2.0 | 5.0 | 0.00 | 0.00 | 0.00 | 96 | 1017.2 |
| 20260906060332 | 58 | 241 | 2.0 | 5.0 | 0.00 | 0.00 | 0.00 | 96 | 1017.3 |
| 20260906060208 | 58 | 272 | 2.0 | 5.0 | 0.00 | 0.00 | 0.00 | 96 | 1017.3 |
| 20260906055330 | 57 | 282 | 2.0 | 5.0 | 0.00 | 0.00 | 0.00 | 96 | 1017.3 |
| 20260906055203 | 57 | 287 | 2.0 | 5.0 | 0.00 | 0.00 | 0.00 | 96 | 1017.3 |
| 20260906054803 | 57 | 271 | 2.0 | 4.0 | 0.00 | 0.00 | 0.00 | 95 | 1017.2 |
| 20260906054203 | 58 | 290 | 1.0 | 5.0 | 0.00 | 0.00 | 0.00 | 95 | 1017.3 |
| 20260906053330 | 58 | 285 | 2.0 | 5.0 | 0.00 | 0.00 | 0.00 | 95 | 1017.3 |
| 20260906053204 | 58 | 312 | 2.0 | 5.0 | 0.00 | 0.00 | 0.00 | 95 | 1017.2 |
| 20260906052329 | 58 | 332 | 2.0 | 6.0 | 0.00 | 0.00 | 0.00 | 95 | 1017.3 |
| 20260906052204 | 58 | 275 | 2.0 | 6.0 | 0.00 | 0.00 | 0.00 | 95 | 1017.3 |
| 20260906051328 | 58 | 281 | 2.0 | 5.0 | 0.00 | 0.00 | 0.00 | 94 | 1017.2 |
| 20260906051201 | 58 | 312 | 2.0 | 5.0 | 0.00 | 0.00 | 0.00 | 94 | 1017.2 |
| 20260906050329 | 58 | 322 | 2.0 | 7.0 | 0.00 | 0.00 | 0.00 | 94 | 1017.2 |
| 20260906050201 | 58 | 307 | 2.0 | 7.0 | 0.00 | 0.00 | 0.00 | 94 | 1017.2 |
| 20260906045329 | 58 | 253 | 2.0 | 5.0 | 0.00 | 0.00 | 0.00 | 94 | 1017.2 |
| 20260906045202 | 58 | 297 | 2.0 | 5.0 | 0.00 | 0.00 | 0.00 | 94 | 1017.2 |
| 20260906044330 | 57 | 312 | 2.0 | 6.0 | 0.00 | 0.00 | 0.00 | 95 | 1017.2 |
| 20260906044201 | 57 | 307 | 2.0 | 6.0 | 0.00 | 0.00 | 0.00 | 95 | 1017.2 |
| 20260906043329 | 57 | 252 | 1.0 | 5.0 | 0.00 | 0.00 | 0.00 | 95 | 1017.2 |
| 20260906043200 | 57 | 326 | 1.0 | 5.0 | 0.00 | 0.00 | 0.00 | 95 | 1017.2 |
| 20260906042329 | 57 | 308 | 1.0 | 4.0 | 0.00 | 0.00 | 0.00 | 95 | 1017.1 |
| 20260906042200 | 57 | 273 | 1.0 | 4.0 | 0.00 | 0.00 | 0.00 | 95 | 1017.1 |
| 20260906041632 | 57 | 296 | 1.0 | 4.0 | 0.00 | 0.00 | 0.00 | 95 | 1017.0 |
| 20260906041430 | 57 | 260 | 1.0 | 4.0 | 0.00 | 0.00 | 0.00 | 95 | 1017.1 |
| 20260906040332 | 57 | 279 | 1.0 | 4.0 | 0.00 | 0.00 | 0.00 | 95 | 1016.9 |
| 20260906040201 | 57 | 272 | 1.0 | 4.0 | 0.00 | 0.00 | 0.00 | 95 | 1016.9 |
| 20260906035633 | 57 | 290 | 1.0 | 3.0 | 0.00 | 0.00 | 0.00 | 94 | 1016.9 |
| 20260906035431 | 57 | 270 | 1.0 | 3.0 | 0.00 | 0.00 | 0.00 | 94 | 1016.9 |
| 20260906034331 | 57 | 280 | 1.0 | 3.0 | 0.00 | 0.00 | 0.00 | 93 | 1016.9 |
| 20260906034200 | 57 | 260 | 1.0 | 3.0 | 0.00 | 0.00 | 0.00 | 93 | 1016.9 |
| 20260906033327 | 57 | 314 | 1.0 | 4.0 | 0.00 | 0.00 | 0.00 | 93 | 1016.9 |
| 20260906033200 | 57 | 316 | 1.0 | 4.0 | 0.00 | 0.00 | 0.00 | 93 | 1016.9 |
| 20260906032324 | 58 | 298 | 1.0 | 4.0 | 0.00 | 0.00 | 0.00 | 92 | 1016.9 |
| 20260906032202 | 58 | 269 | 1.0 | 4.0 | 0.00 | 0.00 | 0.00 | 92 | 1017.0 |
| 20260906031647 | 58 | 251 | 1.0 | 4.0 | 0.00 | 0.00 | 0.00 | 93 | 1016.9 |
| 20260906031430 | 58 | 299 | 1.0 | 4.0 | 0.00 | 0.00 | 0.00 | 93 | 1017.0 |
| 20260906030325 | 58 | 276 | 1.0 | 3.0 | 0.00 | 0.00 | 0.00 | 92 | 1016.8 |
| 20260906030202 | 58 | 291 | 1.0 | 4.0 | 0.00 | 0.00 | 0.00 | 92 | 1016.8 |
| 20260906025325 | 59 | 296 | 1.0 | 4.0 | 0.00 | 0.00 | 0.00 | 90 | 1016.9 |
| 20260906025200 | 59 | 274 | 1.0 | 4.0 | 0.00 | 0.00 | 0.00 | 90 | 1016.9 |
| 20260906024322 | 59 | 308 | 0.0 | 3.0 | 0.00 | 0.00 | 0.00 | 90 | 1017.0 |
| 20260906024202 | 59 | 285 | 0.0 | 2.0 | 0.00 | 0.00 | 0.00 | 89 | 1017.0 |
| 20260906023322 | 60 | 0 | 0.0 | 3.0 | 0.00 | 0.00 | 0.00 | 89 | 1017.0 |
| 20260906023201 | 60 | 295 | 0.0 | 3.0 | 0.00 | 0.00 | 0.00 | 88 | 1017.0 |
| 20260906022323 | 60 | 0 | 0.0 | 2.0 | 0.00 | 0.00 | 0.00 | 89 | 1017.0 |
| 20260906022201 | 60 | 0 | 0.0 | 0.0 | 0.00 | 0.00 | 0.00 | 89 | 1017.0 |
| 20260906021323 | 60 | 0 | 0.0 | 4.0 | 0.00 | 0.00 | 0.00 | 88 | 1017.0 |
| 20260906021202 | 60 | 0 | 0.0 | 4.0 | 0.00 | 0.00 | 0.00 | 88 | 1017.0 |
| 20260906020320 | 61 | 16 | 0.0 | 3.0 | 0.00 | 0.00 | 0.00 | 87 | 1016.9 |
| 20260906020202 | 61 | 0 | 0.0 | 3.0 | 0.00 | 0.00 | 0.00 | 87 | 1016.9 |
| 20260906015322 | 61 | 313 | 0.0 | 2.0 | 0.00 | 0.00 | 0.00 | 87 | 1016.9 |
| 20260906015202 | 61 | 0 | 0.0 | 2.0 | 0.00 | 0.00 | 0.00 | 87 | 1016.9 |
| 20260906014909 | 62 | 0 | 0.0 | 2.0 | 0.00 | 0.00 | 0.00 | 86 | 1016.8 |
| 20260906014741 | 62 | 0 | 0.0 | 2.0 | 0.00 | 0.00 | 0.00 | 86 | 1016.8 |
| 20260906013637 | 62 | 0 | 0.0 | 2.0 | 0.00 | 0.00 | 0.00 | 85 | 1016.8 |
| 20260906013426 | 62 | 337 | 0.0 | 2.0 | 0.00 | 0.00 | 0.00 | 85 | 1016.8 |
| 20260906012635 | 63 | 0 | 0.0 | 2.0 | 0.00 | 0.00 | 0.00 | 84 | 1016.6 |
| 20260906012428 | 63 | 0 | 0.0 | 2.0 | 0.00 | 0.00 | 0.00 | 84 | 1016.6 |
| 20260906011304 | 63 | 0 | 0.0 | 2.0 | 0.00 | 0.00 | 0.00 | 83 | 1016.4 |
| 20260906011201 | 63 | 0 | 0.0 | 2.0 | 0.00 | 0.00 | 0.00 | 83 | 1016.4 |
| 20260906010302 | 63 | 0 | 0.0 | 4.0 | 0.00 | 0.00 | 0.00 | 83 | 1016.1 |
| 20260906010201 | 63 | 0 | 0.0 | 4.0 | 0.00 | 0.00 | 0.00 | 83 | 1016.1 |
| 20260906005637 | 64 | 0 | 0.0 | 2.0 | 0.00 | 0.00 | 0.00 | 83 | 1016.1 |
| 20260906005425 | 64 | 0 | 0.0 | 2.0 | 0.00 | 0.00 | 0.00 | 83 | 1016.1 |
| 20260906004301 | 64 | 0 | 0.0 | 2.0 | 0.00 | 0.00 | 0.00 | 82 | 1016.2 |
| 20260906004202 | 64 | 291 | 0.0 | 2.0 | 0.00 | 0.00 | 0.00 | 82 | 1016.2 |
| 20260906003301 | 65 | 63 | 0.0 | 2.0 | 0.00 | 0.00 | 0.00 | 80 | 1016.2 |
| 20260906003201 | 65 | 0 | 0.0 | 2.0 | 0.00 | 0.00 | 0.00 | 79 | 1016.2 |
| 20260906002640 | 65 | 310 | 1.0 | 3.0 | 0.00 | 0.00 | 0.00 | 78 | 1016.2 |
| 20260906002425 | 65 | 0 | 1.0 | 3.0 | 0.00 | 0.00 | 0.00 | 78 | 1016.2 |
| 20260906001644 | 66 | 0 | 0.0 | 2.0 | 0.00 | 0.00 | 0.00 | 76 | 1016.1 |
| 20260906001425 | 66 | 283 | 0.0 | 2.0 | 0.00 | 0.00 | 0.00 | 76 | 1016.1 |
| 20260906000739 | 67 | 0 | 1.0 | 4.0 | 0.00 | 0.00 | 0.00 | 74 | 1016.1 |
| 20260906000201 | 67 | 0 | 1.0 | 4.0 | 0.00 | 0.00 | 0.00 | 74 | 1016.1 |
| 20260905235648 | 68 | 56 | 2.0 | 8.0 | 0.00 | 0.00 | 0.00 | 71 | 1016.0 |
| 20260905235425 | 68 | 0 | 1.0 | 8.0 | 0.00 | 0.00 | 0.00 | 72 | 1016.0 |
| 20260905234302 | 68 | 319 | 2.0 | 6.0 | 0.00 | 0.00 | 0.00 | 70 | 1016.0 |
| 20260905234201 | 68 | 351 | 2.0 | 6.0 | 0.00 | 0.00 | 0.00 | 70 | 1016.0 |
| 20260905233638 | 69 | 327 | 1.0 | 4.0 | 0.00 | 0.00 | 0.00 | 70 | 1016.0 |
| 20260905233430 | 69 | 89 | 1.0 | 5.0 | 0.00 | 0.00 | 0.00 | 71 | 1016.0 |
| 20260905232733 | 70 | 72 | 2.0 | 7.0 | 0.00 | 0.00 | 0.00 | 68 | 1016.0 |
| 20260905232202 | 70 | 339 | 2.0 | 7.0 | 0.00 | 0.00 | 0.00 | 68 | 1016.0 |
| 20260905231302 | 71 | 212 | 2.0 | 6.0 | 0.00 | 0.00 | 0.00 | 67 | 1016.0 |
| 20260905231202 | 71 | 59 | 2.0 | 6.0 | 0.00 | 0.00 | 0.00 | 67 | 1016.0 |
| 20260905230301 | 71 | 0 | 2.0 | 9.0 | 0.00 | 0.00 | 0.00 | 66 | 1015.9 |
| 20260905230201 | 71 | 43 | 2.0 | 9.0 | 0.00 | 0.00 | 0.00 | 66 | 1015.9 |
| 20260905225300 | 72 | 326 | 3.0 | 9.0 | 0.00 | 0.00 | 0.00 | 67 | 1015.8 |
| 20260905225201 | 72 | 38 | 3.0 | 9.0 | 0.00 | 0.00 | 0.00 | 67 | 1015.7 |
| 20260905224301 | 72 | 0 | 2.0 | 8.0 | 0.00 | 0.00 | 0.00 | 68 | 1015.7 |
| 20260905224201 | 72 | 328 | 2.0 | 8.0 | 0.00 | 0.00 | 0.00 | 69 | 1015.7 |
| 20260905223302 | 73 | 82 | 3.0 | 9.0 | 0.00 | 0.00 | 0.00 | 67 | 1015.6 |
| 20260905223203 | 73 | 185 | 3.0 | 9.0 | 0.00 | 0.00 | 0.00 | 67 | 1015.6 |
| 20260905223121 | 73 | 287 | 2.0 | 7.0 | 0.00 | 0.00 | 0.00 | 66 | 1015.5 |
| 20260905222430 | 73 | 346 | 2.0 | 7.0 | 0.00 | 0.00 | 0.00 | 66 | 1015.5 |
| 20260905221644 | 74 | 7 | 2.0 | 9.0 | 0.00 | 0.00 | 0.00 | 64 | 1015.4 |
| 20260905221429 | 74 | 56 | 2.0 | 9.0 | 0.00 | 0.00 | 0.00 | 64 | 1015.4 |
| 20260905220300 | 74 | 48 | 1.0 | 6.0 | 0.00 | 0.00 | 0.00 | 65 | 1015.4 |
| 20260905220201 | 74 | 64 | 1.0 | 7.0 | 0.00 | 0.00 | 0.00 | 64 | 1015.4 |
| 20260905215305 | 74 | 69 | 1.0 | 7.0 | 0.00 | 0.00 | 0.00 | 63 | 1015.3 |
| 20260905215200 | 74 | 326 | 1.0 | 7.0 | 0.00 | 0.00 | 0.00 | 63 | 1015.3 |
| 20260905214259 | 74 | 65 | 2.0 | 8.0 | 0.00 | 0.00 | 0.00 | 61 | 1015.3 |
| 20260905214206 | 74 | 117 | 2.0 | 8.0 | 0.00 | 0.00 | 0.00 | 61 | 1015.3 |
| 20260905213648 | 74 | 43 | 2.0 | 5.0 | 0.00 | 0.00 | 0.00 | 61 | 1015.3 |
| 20260905213425 | 74 | 117 | 2.0 | 7.0 | 0.00 | 0.00 | 0.00 | 62 | 1015.4 |
| 20260905212256 | 75 | 330 | 3.0 | 9.0 | 0.00 | 0.00 | 0.00 | 60 | 1015.4 |
| 20260905212201 | 75 | 50 | 3.0 | 9.0 | 0.00 | 0.00 | 0.00 | 60 | 1015.4 |
| 20260905211255 | 75 | 50 | 2.0 | 6.0 | 0.00 | 0.00 | 0.00 | 61 | 1015.3 |
| 20260905211201 | 75 | 304 | 2.0 | 6.0 | 0.00 | 0.00 | 0.00 | 61 | 1015.4 |
| 20260905210253 | 76 | 131 | 2.0 | 6.0 | 0.00 | 0.00 | 0.00 | 59 | 1015.4 |
| 20260905210201 | 76 | 248 | 2.0 | 6.0 | 0.00 | 0.00 | 0.00 | 60 | 1015.4 |
| 20260905205252 | 77 | 37 | 2.0 | 7.0 | 0.00 | 0.00 | 0.00 | 60 | 1015.3 |
| 20260905205202 | 77 | 0 | 2.0 | 7.0 | 0.00 | 0.00 | 0.00 | 59 | 1015.3 |
| 20260905204641 | 76 | 300 | 3.0 | 6.0 | 0.00 | 0.00 | 0.00 | 58 | 1015.2 |
| 20260905204422 | 76 | 336 | 3.0 | 6.0 | 0.00 | 0.00 | 0.00 | 59 | 1015.2 |
| 20260905204119 | 77 | 233 | 2.0 | 7.0 | 0.00 | 0.00 | 0.00 | 56 | 1015.3 |
| 20260905203422 | 77 | 294 | 3.0 | 7.0 | 0.00 | 0.00 | 0.00 | 56 | 1015.2 |
| 20260905202251 | 77 | 147 | 3.0 | 10.0 | 0.00 | 0.00 | 0.00 | 57 | 1015.4 |
| 20260905202202 | 77 | 66 | 3.0 | 10.0 | 0.00 | 0.00 | 0.00 | 57 | 1015.4 |
| 20260905201251 | 77 | 109 | 2.0 | 7.0 | 0.00 | 0.00 | 0.00 | 55 | 1015.4 |
| 20260905201203 | 77 | 40 | 2.0 | 7.0 | 0.00 | 0.00 | 0.00 | 56 | 1015.4 |
| 20260905200247 | 77 | 49 | 3.0 | 7.0 | 0.00 | 0.00 | 0.00 | 56 | 1015.4 |
| 20260905200201 | 77 | 325 | 2.0 | 7.0 | 0.00 | 0.00 | 0.00 | 59 | 1015.4 |
| 20260905195638 | 77 | 83 | 2.0 | 6.0 | 0.00 | 0.00 | 0.00 | 56 | 1015.4 |
| 20260905195422 | 77 | 125 | 2.0 | 6.0 | 0.00 | 0.00 | 0.00 | 58 | 1015.4 |
| 20260905195124 | 77 | 136 | 2.0 | 6.0 | 0.00 | 0.00 | 0.00 | 54 | 1015.4 |
| 20260905194422 | 77 | 58 | 2.0 | 6.0 | 0.00 | 0.00 | 0.00 | 57 | 1015.4 |
| 20260905193245 | 77 | 331 | 2.0 | 6.0 | 0.00 | 0.00 | 0.00 | 56 | 1015.5 |
| 20260905193201 | 77 | 315 | 2.0 | 6.0 | 0.00 | 0.00 | 0.00 | 55 | 1015.5 |
| 20260905192245 | 78 | 79 | 2.0 | 6.0 | 0.00 | 0.00 | 0.00 | 56 | 1015.6 |
| 20260905192207 | 78 | 123 | 2.0 | 7.0 | 0.00 | 0.00 | 0.00 | 55 | 1015.5 |
| 20260905192201 | 78 | 0 | 2.0 | 7.0 | 0.00 | 0.00 | 0.00 | 56 | 1015.6 |
| 20260905191202 | 78 | 135 | 2.0 | 7.0 | 0.00 | 0.00 | 0.00 | 57 | 1015.6 |
| 20260905190241 | 78 | 37 | 2.0 | 8.0 | 0.00 | 0.00 | 0.00 | 59 | 1015.6 |
| 20260905190208 | 77 | 335 | 2.0 | 8.0 | 0.00 | 0.00 | 0.00 | 57 | 1015.6 |
| 20260905190201 | 78 | 329 | 3.0 | 8.0 | 0.00 | 0.00 | 0.00 | 57 | 1015.6 |
| 20260905185202 | 77 | 345 | 2.0 | 8.0 | 0.00 | 0.00 | 0.00 | 55 | 1015.6 |
| 20260905184238 | 77 | 240 | 2.0 | 6.0 | 0.00 | 0.00 | 0.00 | 56 | 1015.7 |
| 20260905184200 | 77 | 83 | 2.0 | 6.0 | 0.00 | 0.00 | 0.00 | 55 | 1015.7 |
| 20260905183234 | 77 | 161 | 2.0 | 6.0 | 0.00 | 0.00 | 0.00 | 57 | 1015.7 |
| 20260905183200 | 77 | 10 | 2.0 | 6.0 | 0.00 | 0.00 | 0.00 | 59 | 1015.7 |
| 20260905182234 | 78 | 335 | 2.0 | 5.0 | 0.00 | 0.00 | 0.00 | 59 | 1015.8 |
| 20260905182202 | 78 | 119 | 2.0 | 6.0 | 0.00 | 0.00 | 0.00 | 59 | 1015.7 |
| 20260905181232 | 77 | 22 | 2.0 | 6.0 | 0.00 | 0.00 | 0.00 | 63 | 1015.7 |
| 20260905181201 | 77 | 11 | 2.0 | 6.0 | 0.00 | 0.00 | 0.00 | 62 | 1015.7 |
| 20260905180642 | 76 | 82 | 2.0 | 6.0 | 0.00 | 0.00 | 0.00 | 65 | 1015.6 |
| 20260905180418 | 76 | 30 | 2.0 | 6.0 | 0.00 | 0.00 | 0.00 | 62 | 1015.7 |
| 20260905175233 | 76 | 317 | 3.0 | 8.0 | 0.00 | 0.00 | 0.00 | 63 | 1015.6 |
| 20260905175200 | 76 | 312 | 3.0 | 8.0 | 0.00 | 0.00 | 0.00 | 63 | 1015.6 |
| 20260905174232 | 76 | 302 | 2.0 | 7.0 | 0.00 | 0.00 | 0.00 | 65 | 1015.6 |
| 20260905174204 | 76 | 3 | 2.0 | 7.0 | 0.00 | 0.00 | 0.00 | 64 | 1015.7 |
| 20260905173232 | 76 | 325 | 2.0 | 7.0 | 0.00 | 0.00 | 0.00 | 65 | 1015.6 |
| 20260905173202 | 76 | 338 | 2.0 | 7.0 | 0.00 | 0.00 | 0.00 | 65 | 1015.7 |
| 20260905172234 | 76 | 302 | 2.0 | 7.0 | 0.00 | 0.00 | 0.00 | 65 | 1015.6 |
| 20260905172203 | 76 | 0 | 2.0 | 7.0 | 0.00 | 0.00 | 0.00 | 65 | 1015.6 |
| 20260905171646 | 77 | 79 | 1.0 | 6.0 | 0.00 | 0.00 | 0.00 | 67 | 1015.8 |
| 20260905171419 | 77 | 65 | 1.0 | 6.0 | 0.00 | 0.00 | 0.00 | 66 | 1015.8 |
| 20260905170719 | 76 | 78 | 2.0 | 9.0 | 0.00 | 0.00 | 0.00 | 64 | 1015.8 |
| 20260905170202 | 76 | 88 | 2.0 | 9.0 | 0.00 | 0.00 | 0.00 | 65 | 1015.8 |
| 20260905165230 | 76 | 295 | 2.0 | 7.0 | 0.00 | 0.00 | 0.00 | 65 | 1015.9 |
| 20260905165202 | 76 | 62 | 2.0 | 7.0 | 0.00 | 0.00 | 0.00 | 66 | 1015.9 |
| 20260905164230 | 76 | 161 | 2.0 | 6.0 | 0.00 | 0.00 | 0.00 | 65 | 1015.8 |
| 20260905164202 | 76 | 106 | 2.0 | 6.0 | 0.00 | 0.00 | 0.00 | 65 | 1015.8 |
| 20260905163230 | 76 | 41 | 2.0 | 8.0 | 0.00 | 0.00 | 0.00 | 67 | 1015.8 |
| 20260905163201 | 76 | 91 | 2.0 | 8.0 | 0.00 | 0.00 | 0.00 | 66 | 1015.8 |
| 20260905163116 | 75 | 46 | 2.0 | 6.0 | 0.00 | 0.00 | 0.00 | 65 | 1016.0 |
| 20260905162420 | 75 | 84 | 2.0 | 6.0 | 0.00 | 0.00 | 0.00 | 69 | 1016.0 |
| 20260905161229 | 75 | 77 | 3.0 | 7.0 | 0.00 | 0.00 | 0.00 | 66 | 1015.9 |
| 20260905161201 | 75 | 86 | 3.0 | 7.0 | 0.00 | 0.00 | 0.00 | 68 | 1015.9 |
| 20260905160228 | 75 | 71 | 2.0 | 6.0 | 0.00 | 0.00 | 0.00 | 68 | 1015.9 |
| 20260905160200 | 75 | 312 | 2.0 | 6.0 | 0.00 | 0.00 | 0.00 | 66 | 1015.9 |
| 20260905155632 | 74 | 82 | 3.0 | 7.0 | 0.00 | 0.00 | 0.00 | 68 | 1015.6 |
| 20260905155412 | 75 | 108 | 2.0 | 8.0 | 0.00 | 0.00 | 0.00 | 67 | 1015.8 |
| 20260905155404 | 75 | 144 | 2.0 | 8.0 | 0.00 | 0.00 | 0.00 | 68 | 1015.8 |
| 20260905154200 | 74 | 357 | 3.0 | 6.0 | 0.00 | 0.00 | 0.00 | 68 | 1015.7 |
| 20260905153230 | 74 | 79 | 2.0 | 6.0 | 0.00 | 0.00 | 0.00 | 67 | 1015.6 |
| 20260905153201 | 74 | 317 | 2.0 | 6.0 | 0.00 | 0.00 | 0.00 | 68 | 1015.6 |
| 20260905152230 | 74 | 72 | 2.0 | 7.0 | 0.00 | 0.00 | 0.00 | 68 | 1015.5 |
| 20260905152202 | 74 | 75 | 2.0 | 7.0 | 0.00 | 0.00 | 0.00 | 68 | 1015.6 |
| 20260905151643 | 74 | 77 | 2.0 | 8.0 | 0.00 | 0.00 | 0.00 | 68 | 1015.6 |
| 20260905151418 | 74 | 35 | 2.0 | 8.0 | 0.00 | 0.00 | 0.00 | 67 | 1015.6 |
| 20260905150717 | 73 | 0 | 2.0 | 10.0 | 0.00 | 0.00 | 0.00 | 68 | 1015.5 |
| 20260905150200 | 73 | 0 | 2.0 | 10.0 | 0.00 | 0.00 | 0.00 | 66 | 1015.6 |
| 20260905145714 | 73 | 138 | 2.0 | 10.0 | 0.00 | 0.00 | 0.00 | 65 | 1015.3 |
| 20260905145202 | 73 | 136 | 2.0 | 6.0 | 0.00 | 0.00 | 0.00 | 69 | 1015.4 |
| 20260905144229 | 73 | 295 | 3.0 | 9.0 | 0.00 | 0.00 | 0.00 | 70 | 1015.3 |
| 20260905144202 | 73 | 339 | 3.0 | 9.0 | 0.00 | 0.00 | 0.00 | 67 | 1015.4 |
| 20260905143714 | 72 | 192 | 2.0 | 6.0 | 0.00 | 0.00 | 0.00 | 70 | 1015.3 |
| 20260905143202 | 72 | 119 | 2.0 | 6.0 | 0.00 | 0.00 | 0.00 | 69 | 1015.3 |
| 20260905142229 | 71 | 67 | 2.0 | 5.0 | 0.00 | 0.01 | 0.00 | 73 | 1015.4 |
| 20260905142200 | 71 | 204 | 2.0 | 5.0 | 0.00 | 0.01 | 0.00 | 74 | 1015.3 |
| 20260905142119 | 70 | 0 | 2.0 | 5.0 | 0.00 | 0.02 | 0.00 | 78 | 1015.5 |
| 20260905141419 | 70 | 0 | 2.0 | 5.0 | 0.00 | 0.02 | 0.00 | 80 | 1015.5 |
| 20260905140711 | 70 | 44 | 2.0 | 6.0 | 0.00 | 0.04 | 0.00 | 79 | 1015.5 |
| 20260905140202 | 70 | 48 | 2.0 | 6.0 | 0.00 | 0.04 | 0.00 | 81 | 1015.5 |
| 20260905135228 | 68 | 332 | 2.0 | 6.0 | 0.00 | 0.04 | 0.00 | 83 | 1015.5 |
| 20260905135201 | 68 | 331 | 2.0 | 6.0 | 0.00 | 0.04 | 0.00 | 83 | 1015.5 |
| 20260905134232 | 67 | 87 | 2.0 | 4.0 | 0.00 | 0.04 | 0.00 | 85 | 1015.4 |
| 20260905134200 | 67 | 75 | 2.0 | 4.0 | 0.00 | 0.04 | 0.00 | 86 | 1015.4 |
| 20260905133231 | 67 | 38 | 1.0 | 3.0 | 0.00 | 0.04 | 0.00 | 87 | 1015.5 |
| 20260905133202 | 67 | 0 | 1.0 | 3.0 | 0.00 | 0.04 | 0.00 | 87 | 1015.5 |
| 20260905132230 | 67 | 135 | 2.0 | 5.0 | 0.00 | 0.04 | 0.00 | 87 | 1015.5 |
| 20260905132202 | 67 | 0 | 2.0 | 5.0 | 0.00 | 0.04 | 0.00 | 87 | 1015.5 |
| 20260905131710 | 67 | 80 | 1.0 | 3.0 | 0.00 | 0.04 | 0.00 | 87 | 1015.6 |
| 20260905131159 | 67 | 79 | 0.0 | 3.0 | 0.00 | 0.04 | 0.00 | 88 | 1015.6 |
| 20260905130229 | 67 | 0 | 1.0 | 4.0 | 0.00 | 0.05 | 0.00 | 88 | 1015.5 |
| 20260905130158 | 67 | 0 | 1.0 | 4.0 | 0.00 | 0.05 | 0.00 | 88 | 1015.5 |
| 20260905125230 | 67 | 62 | 1.0 | 3.0 | 0.00 | 0.08 | 0.00 | 89 | 1015.4 |
| 20260905125143 | 67 | 0 | 1.0 | 3.0 | 0.00 | 0.08 | 0.00 | 89 | 1015.4 |
| 20260905124229 | 67 | 332 | 0.0 | 2.0 | 0.00 | 0.09 | 0.00 | 88 | 1015.4 |
| 20260905124143 | 67 | 0 | 0.0 | 2.0 | 0.00 | 0.09 | 0.00 | 89 | 1015.3 |
| 20260905123229 | 66 | 0 | 0.0 | 2.0 | 0.00 | 0.09 | 0.00 | 90 | 1015.3 |
| 20260905123144 | 66 | 0 | 0.0 | 2.0 | 0.00 | 0.09 | 0.00 | 90 | 1015.3 |
| 20260905122707 | 66 | 348 | 0.0 | 2.0 | 0.00 | 0.09 | 0.00 | 92 | 1015.2 |
| 20260905122145 | 66 | 0 | 0.0 | 2.0 | 0.00 | 0.09 | 0.00 | 92 | 1015.2 |
| 20260905121711 | 65 | 95 | 0.0 | 3.0 | 0.00 | 0.09 | 0.00 | 92 | 1015.1 |
| 20260905121131 | 65 | 0 | 0.0 | 3.0 | 0.00 | 0.09 | 0.00 | 93 | 1015.1 |
| 20260905120230 | 65 | 0 | 0.0 | 3.0 | 0.00 | 0.09 | 0.00 | 94 | 1015.2 |
| 20260905120130 | 65 | 0 | 0.0 | 3.0 | 0.00 | 0.09 | 0.00 | 94 | 1015.1 |
| 20260905115230 | 65 | 68 | 0.0 | 2.0 | 0.00 | 0.09 | 0.00 | 96 | 1015.1 |
| 20260905115129 | 65 | 235 | 0.0 | 2.0 | 0.00 | 0.09 | 0.00 | 96 | 1015.1 |
| 20260905114230 | 65 | 76 | 1.0 | 4.0 | 0.00 | 0.09 | 0.00 | 97 | 1015.2 |
| 20260905114205 | 65 | 0 | 0.0 | 2.0 | 0.00 | 0.09 | 0.00 | 97 | 1015.1 |
| 20260905114130 | 65 | 0 | 1.0 | 4.0 | 0.00 | 0.09 | 0.00 | 97 | 1015.2 |
| 20260905113129 | 65 | 72 | 0.0 | 2.0 | 0.00 | 0.09 | 0.00 | 97 | 1015.1 |
| 20260905112229 | 65 | 0 | 0.0 | 3.0 | 0.00 | 0.09 | 0.00 | 97 | 1015.1 |
| 20260905112130 | 65 | 60 | 0.0 | 3.0 | 0.00 | 0.09 | 0.00 | 98 | 1015.0 |
| 20260905111230 | 65 | 73 | 1.0 | 4.0 | 0.00 | 0.09 | 0.00 | 98 | 1015.0 |
| 20260905111129 | 65 | 73 | 1.0 | 4.0 | 0.00 | 0.09 | 0.00 | 98 | 1015.0 |
| 20260905110230 | 65 | 0 | 0.0 | 0.0 | 0.00 | 0.09 | 0.00 | 98 | 1014.9 |
| 20260905110129 | 65 | 0 | 0.0 | 0.0 | 0.00 | 0.09 | 0.00 | 98 | 1014.9 |
| 20260905105234 | 65 | 0 | 1.0 | 2.0 | 0.00 | 0.09 | 0.00 | 98 | 1014.9 |
| 20260905105130 | 65 | 0 | 1.0 | 2.0 | 0.00 | 0.09 | 0.00 | 98 | 1014.9 |
| 20260905104712 | 64 | 0 | 0.0 | 0.0 | 0.00 | 0.09 | 0.00 | 98 | 1015.0 |
| 20260905104129 | 64 | 0 | 0.0 | 0.0 | 0.00 | 0.09 | 0.00 | 98 | 1015.0 |
| 20260905104056 | 64 | 0 | 0.0 | 3.0 | 0.00 | 0.09 | 0.00 | 98 | 1014.9 |
| 20260905103352 | 64 | 0 | 0.0 | 3.0 | 0.00 | 0.09 | 0.00 | 98 | 1014.9 |
| 20260905102230 | 64 | 0 | 0.0 | 2.0 | 0.00 | 0.09 | 0.00 | 98 | 1014.8 |
| 20260905102134 | 65 | 0 | 0.0 | 2.0 | 0.00 | 0.09 | 0.00 | 98 | 1014.8 |
| 20260905101526 | 65 | 0 | 0.0 | 1.0 | 0.00 | 0.09 | 0.00 | 98 | 1014.8 |
| 20260905101319 | 65 | 71 | 0.0 | 2.0 | 0.00 | 0.09 | 0.00 | 98 | 1014.7 |
| 20260905101309 | 65 | 79 | 0.0 | 2.0 | 0.00 | 0.09 | 0.00 | 98 | 1014.7 |
| 20260905100346 | 65 | 0 | 0.0 | 1.0 | 0.00 | 0.09 | 0.00 | 98 | 1014.7 |
| 20260905095230 | 65 | 0 | 0.0 | 1.0 | 0.00 | 0.09 | 0.00 | 98 | 1014.8 |
| 20260905095130 | 65 | 0 | 0.0 | 1.0 | 0.00 | 0.09 | 0.00 | 98 | 1014.7 |
| 20260905094230 | 65 | 0 | 0.0 | 2.0 | 0.00 | 0.09 | 0.00 | 98 | 1014.9 |
| 20260905094130 | 65 | 0 | 0.0 | 2.0 | 0.00 | 0.09 | 0.00 | 98 | 1014.9 |
| 20260905093713 | 65 | 0 | 0.0 | 0.0 | 0.00 | 0.09 | 0.00 | 98 | 1015.1 |
| 20260905093129 | 65 | 0 | 0.0 | 0.0 | 0.00 | 0.09 | 0.00 | 98 | 1015.1 |
| 20260905093055 | 65 | 0 | 0.0 | 2.0 | 0.00 | 0.09 | 0.00 | 98 | 1014.9 |
| 20260905092346 | 65 | 0 | 0.0 | 2.0 | 0.00 | 0.09 | 0.00 | 98 | 1014.9 |
| 20260905091231 | 65 | 0 | 0.0 | 0.0 | 0.00 | 0.09 | 0.00 | 98 | 1014.9 |
| 20260905091130 | 65 | 0 | 0.0 | 0.0 | 0.00 | 0.09 | 0.00 | 98 | 1014.8 |
| 20260905090218 | 65 | 0 | 0.0 | 0.0 | 0.00 | 0.09 | 0.00 | 98 | 1014.6 |
| 20260905090130 | 65 | 0 | 0.0 | 0.0 | 0.00 | 0.09 | 0.00 | 98 | 1014.6 |
| 20260905085218 | 65 | 0 | 0.0 | 2.0 | 0.00 | 0.09 | 0.00 | 98 | 1014.4 |
| 20260905085130 | 65 | 0 | 0.0 | 2.0 | 0.00 | 0.09 | 0.00 | 98 | 1014.4 |
| 20260905084558 | 65 | 168 | 1.0 | 3.0 | 0.00 | 0.09 | 0.00 | 98 | 1014.3 |
| 20260905084335 | 65 | 131 | 1.0 | 3.0 | 0.00 | 0.09 | 0.00 | 98 | 1014.4 |
| 20260905083645 | 65 | 0 | 0.0 | 3.0 | 0.00 | 0.09 | 0.00 | 98 | 1014.1 |
| 20260905083118 | 65 | 0 | 0.0 | 3.0 | 0.00 | 0.09 | 0.00 | 98 | 1014.0 |
| 20260905082202 | 65 | 0 | 1.0 | 3.0 | 0.00 | 0.09 | 0.00 | 97 | 1014.2 |